Location: Kielce
(50.8833°N, 20.6167°E)
Time: 21:03:10
(UTC+02:00)

SR - Pass Details

Date: 20 April 2021
Orbit: 573 x 882 km, 66.7° (Epoch: 09 May)

Event Time Altitude Azimuth Distance (km) Brightness Sun altitude
Rises 10:17:49 0° 259° (W) 3,399 ? 41.7°
Reaches altitude 10° 10:20:35 10° 270° (W) 2,498 ? 42.0°
Maximum altitude 10:25:37 29° 330° (NNW) 1,566 ? 42.6°
Drops below altitude 10° 10:30:44 10° 29° (NNE) 2,549 ? 43.1°
Sets 10:33:36 0° 41° (NE) 3,481 ? 43.5°
